Temp
7 10 8 7 7 7 7 6 6 6 5 4 5 5 5 3 2 3 3 2 2 2 2 2 2 2 2 1 1 1 0 -0 -1 -1 -2 -2 -2 -1 1 1 2 3 4 7
9 7 6 5 6 6 6 6 6 5 4 4 4 5 5 3 3 3 3 3 3 2 2 2 2 1 1 1 0 0 -0 -1 -1 -2 -2 -2 -2 -2 -1 0 1 2 3 4
8 7 5 6 6 7 6 6 6 6 5 4 4 6 4 4 3 2 2 2 2 2 2 2 2 1 1 0 0 -0 -1 -1 -2 -2 -2 -3 -3 -2 -2 -1 0 1 2 3
7 6 6 6 6 6 8 5 5 5 5 7 4 7 5 3 4 3 4 3 3 2 2 2 2 1 1 -0 -0 -1 -1 -2 -2 -2 -2 -3 -3 -3 -3 -3 -1 -0 1 2
8 7 7 7 6 5 7 4 5 4 5 5 4 4 6 2 6 6 5 4 3 2 3 2 1 1 0 0 -0 -1 -1 -2 -2 -2 -3 -3 -3 -3 -3 -3 -2 -1 1 1
7 6 7 7 6 5 4 5 4 3 4 6 3 4 6 5 5 5 5 4 3 3 3 2 1 0 0 -0 -1 -1 -2 -2 -2 -3 -3 -3 -3 -4 -4 -3 -3 -2 -1 1
7 7 6 6 7 6 7 6 9 10 8 8 1 3 4 5 5 3 4 3 2 2 2 1 0 -0 -0 -1 -1 -2 -2 -2 -3 -3 -3 -3 -3 -4 -4 -4 -3 -3 -2 -2
9 10 7 6 7 6 5 5 8 8 8 6 0 2 7 3 2 2 2 2 2 1 2 1 0 -0 -1 -1 -2 -2 -2 -2 -3 -3 -3 -3 -4 -4 -4 -4 -3 -3 -2 -2
9 9 6 6 6 6 5 6 4 4 2 3 4 3 4 4 4 3 3 2 2 1 1 1 0 -0 -1 -1 -2 -2 -2 -3 -3 -3 -4 -4 -4 -4 -4 -4 -3 -3 -2 -3
7 9 6 6 6 5 6 4 6 4 5 6 5 1 6 7 6 6 4 3 2 1 1 0 -0 -1 -1 -2 -2 -2 -3 -3 -3 -4 -4 -4 -4 -4 -4 -4 -4 -3 -3 -3
6 7 7 6 6 6 5 5 3 3 3 5 4 8 3 4 5 4 3 2 1 1 1 0 -1 -1 -2 -2 -2 -2 -2 -3 -4 -4 -4 -5 -4 -4 -4 -4 -4 -3 -3 -3
6 6 7 8 5 5 5 6 6 6 5 3 2 4 5 4 3 2 2 1 1 1 1 -0 -1 -1 -2 -2 -2 -2 -3 -3 -4 -5 -5 -5 -5 -4 -4 -4 -3 -3 -3 -3
6 6 9 8 6 5 5 5 5 4 2 3 5 9 4 3 2 3 1 1 1 1 1 0 -1 -1 -1 -2 -2 -3 -3 -4 -5 -5 -5 -5 -5 -4 -4 -4 -3 -3 -3 -3
6 5 7 11 9 7 5 5 5 5 4 4 5 8 7 7 1 2 2 2 2 1 1 0 -0 -1 -1 -2 -2 -3 -4 -4 -5 -5 -5 -5 -5 -4 -4 -4 -4 -3 -3 -3
5 7 5 6 6 5 4 5 5 3 2 5 5 3 5 4 2 2 3 2 2 1 1 0 -0 -1 -1 -2 -2 -3 -4 -4 -5 -5 -5 -5 -5 -4 -5 -4 -4 -4 -4 -3
3 7 4 5 4 3 5 5 5 5 3 0 3 3 6 5 3 2 3 2 2 2 1 0 -0 -1 -1 -2 -2 -3 -4 -4 -5 -5 -5 -5 -5 -5 -5 -4 -5 -4 -4 -4
5 5 5 8 5 4 7 7 5 4 3 2 4 5 3 4 3 3 3 3 3 2 1 0 -0 -1 -1 -2 -3 -3 -4 -4 -5 -5 -5 -5 -5 -4 -5 -5 -4 -4 -4 -4
4 5 5 6 7 11 10 7 6 5 6 3 4 3 3 3 4 4 4 4 3 2 1 0 -0 -1 -2 -2 -3 -3 -4 -4 -5 -5 -5 -5 -5 -5 -4 -5 -5 -5 -4 -4
3 5 5 5 5 9 10 6 6 6 9 8 6 6 5 4 3 5 6 5 4 2 1 0 -1 -1 -2 -2 -3 -3 -4 -5 -5 -5 -5 -5 -5 -5 -5 -5 -5 -5 -5 -4
3 4 5 3 6 9 11 6 5 6 9 7 6 7 5 2 6 7 6 5 3 2 1 0 -1 -1 -2 -2 -3 -4 -4 -5 -5 -5 -5 -5 -5 -5 -5 -5 -5 -5 -5 -5
4 4 4 4 5 6 8 5 5 9 13 9 8 9 5 3 6 7 6 5 4 2 1 0 -1 -1 -2 -3 -3 -4 -4 -5 -5 -5 -5 -5 -5 -5 -5 -5 -5 -5 -5 -5
6 4 4 4 4 6 4 4 8 11 11 11 10 9 8 8 8 7 6 5 4 3 2 1 -0 -1 -2 -3 -3 -4 -4 -5 -5 -6 -6 -5 -6 -5 -6 -6 -6 -5 -5 -5
7 7 6 5 7 7 6 10 11 11 11 10 9 10 9 8 7 7 6 5 5 3 2 1 0 -1 -1 -2 -3 -4 -4 -5 -6 -6 -6 -6 -6 -6 -6 -6 -6 -6 -6 -6
5 4 7 6 10 7 6 9 10 10 11 10 10 9 8 8 8 7 6 6 5 4 3 2 1 0 -1 -2 -2 -3 -5 -5 -6 -6 -6 -6 -6 -6 -6 -6 -6 -6 -6 -6
7 4 6 6 8 8 9 9 11 11 10 10 9 9 8 8 8 8 7 6 5 4 3 2 2 1 0 -1 -2 -3 -4 -4 -5 -6 -6 -6 -6 -6 -6 -6 -6 -6 -6 -6
4 7 8 11 13 11 11 12 11 11 11 11 10 10 9 9 8 8 7 6 6 5 4 3 2 2 1 -0 -1 -2 -3 -3 -4 -5 -5 -6 -6 -7 -7 -6 -6 -6 -6 -7
Height
1576 1573 1592 1600 1598 1600 1602 1604 1603 1603 1606 1605 1601 1600 1599 1601 1601 1598 1596 1595 1593 1592 1590 1589 1587 1585 1584 1581 1579 1576 1573 1569 1564 1559 1555 1550 1545 1542 1538 1535 1532 1528 1526 1522
1589 1600 1608 1607 1606 1605 1606 1604 1602 1604 1606 1606 1602 1595 1595 1595 1593 1594 1593 1592 1590 1588 1586 1585 1584 1582 1581 1579 1577 1575 1572 1568 1564 1560 1556 1551 1546 1542 1537 1533 1531 1527 1524 1524
1592 1608 1609 1608 1608 1604 1605 1602 1602 1603 1604 1606 1600 1586 1591 1591 1592 1593 1590 1587 1585 1583 1582 1582 1581 1579 1579 1577 1576 1574 1570 1567 1564 1559 1555 1551 1546 1541 1536 1532 1528 1525 1522 1519
1602 1608 1608 1607 1606 1606 1597 1605 1604 1603 1602 1592 1604 1582 1586 1590 1588 1588 1584 1582 1580 1579 1577 1576 1576 1577 1576 1576 1574 1572 1569 1566 1562 1559 1554 1550 1546 1540 1535 1531 1526 1522 1517 1514
1606 1607 1606 1605 1608 1607 1602 1605 1603 1603 1602 1602 1604 1599 1578 1590 1580 1578 1578 1576 1575 1573 1573 1572 1572 1573 1573 1572 1571 1570 1567 1564 1561 1558 1554 1550 1545 1541 1537 1533 1528 1523 1520 1515
1607 1608 1608 1607 1608 1607 1606 1603 1604 1606 1603 1593 1609 1602 1577 1579 1578 1576 1574 1573 1571 1570 1569 1569 1569 1570 1571 1570 1569 1567 1564 1562 1559 1556 1553 1549 1545 1540 1535 1532 1528 1523 1520 1516
1607 1607 1609 1608 1606 1606 1602 1598 1582 1578 1580 1581 1617 1607 1582 1577 1577 1576 1573 1570 1569 1567 1567 1566 1566 1567 1567 1567 1566 1564 1562 1559 1557 1554 1552 1548 1544 1540 1536 1532 1528 1523 1519 1517
1602 1595 1608 1609 1608 1609 1609 1607 1597 1594 1589 1593 1619 1604 1571 1575 1575 1573 1571 1569 1567 1567 1566 1565 1564 1564 1564 1564 1563 1562 1559 1557 1555 1552 1550 1546 1542 1539 1536 1532 1528 1524 1520 1515
1603 1602 1609 1609 1609 1611 1608 1607 1617 1614 1624 1616 1600 1595 1576 1572 1571 1571 1569 1568 1567 1566 1565 1563 1562 1562 1562 1561 1560 1559 1557 1555 1552 1550 1547 1544 1540 1537 1535 1531 1527 1524 1521 1519
1608 1602 1608 1611 1610 1612 1609 1616 1608 1615 1604 1593 1589 1605 1573 1565 1566 1568 1567 1565 1565 1565 1562 1560 1561 1560 1559 1559 1558 1556 1554 1552 1550 1547 1545 1542 1539 1536 1534 1530 1526 1522 1520 1518
1606 1607 1607 1609 1607 1604 1611 1611 1619 1619 1618 1604 1607 1562 1569 1567 1566 1567 1564 1564 1563 1563 1560 1559 1558 1557 1557 1557 1556 1554 1553 1551 1548 1545 1542 1539 1537 1535 1532 1529 1526 1522 1519 1517
1607 1607 1600 1599 1606 1606 1607 1605 1605 1602 1609 1619 1620 1585 1563 1565 1566 1565 1562 1561 1560 1559 1557 1556 1557 1557 1556 1555 1554 1553 1551 1549 1546 1542 1540 1538 1536 1534 1531 1528 1525 1523 1520 1517
1605 1604 1595 1594 1605 1606 1603 1604 1605 1608 1614 1610 1601 1557 1560 1563 1563 1562 1560 1557 1556 1557 1555 1555 1556 1555 1554 1553 1552 1551 1550 1548 1544 1542 1539 1537 1535 1533 1531 1528 1526 1524 1521 1518
1603 1604 1597 1584 1584 1594 1600 1599 1601 1601 1602 1599 1586 1559 1554 1556 1559 1557 1556 1554 1554 1555 1553 1553 1553 1552 1551 1551 1551 1550 1549 1547 1544 1543 1540 1538 1535 1533 1531 1529 1526 1525 1523 1519
1602 1598 1601 1592 1590 1593 1591 1589 1593 1597 1595 1588 1570 1576 1557 1555 1555 1552 1551 1551 1550 1551 1550 1550 1550 1549 1548 1549 1549 1549 1548 1546 1544 1543 1541 1539 1536 1534 1532 1529 1527 1526 1523 1521
1603 1596 1600 1589 1589 1591 1584 1579 1581 1584 1589 1591 1579 1569 1552 1550 1550 1549 1548 1548 1547 1547 1547 1547 1546 1545 1545 1546 1546 1546 1546 1545 1544 1542 1541 1539 1537 1534 1532 1530 1528 1526 1524 1521
1599 1598 1596 1580 1585 1583 1569 1557 1567 1571 1572 1573 1569 1552 1549 1547 1547 1545 1545 1545 1545 1545 1544 1544 1545 1544 1543 1543 1543 1544 1545 1543 1542 1541 1539 1538 1537 1535 1533 1531 1529 1527 1524 1522
1596 1597 1598 1587 1580 1562 1548 1555 1558 1560 1555 1559 1553 1547 1544 1544 1542 1541 1541 1540 1541 1542 1543 1541 1541 1540 1541 1541 1541 1542 1542 1541 1540 1538 1537 1535 1534 1533 1532 1531 1529 1527 1524 1522
1594 1594 1594 1593 1593 1563 1543 1553 1554 1555 1541 1541 1543 1540 1540 1541 1541 1538 1537 1536 1537 1538 1539 1539 1539 1538 1538 1538 1537 1538 1538 1538 1537 1536 1536 1534 1533 1531 1530 1530 1530 1528 1525 1523
1595 1594 1593 1601 1588 1565 1540 1549 1550 1551 1544 1533 1536 1535 1537 1541 1539 1535 1534 1533 1534 1535 1536 1536 1537 1536 1535 1536 1536 1537 1536 1536 1535 1535 1535 1534 1533 1532 1531 1529 1528 1527 1526 1523
1592 1593 1591 1594 1588 1564 1541 1547 1550 1548 1529 1527 1529 1531 1534 1536 1532 1530 1530 1531 1531 1531 1531 1531 1532 1533 1533 1533 1533 1534 1534 1533 1531 1531 1531 1530 1531 1531 1530 1530 1528 1527 1525 1523
1573 1582 1585 1587 1589 1563 1538 1548 1544 1524 1521 1523 1525 1527 1527 1527 1526 1526 1527 1528 1528 1528 1528 1528 1528 1528 1528 1530 1531 1530 1529 1529 1528 1528 1528 1527 1527 1528 1528 1527 1527 1526 1525 1523
1565 1556 1560 1561 1542 1528 1527 1519 1519 1519 1519 1520 1521 1521 1521 1521 1520 1521 1522 1524 1524 1525 1524 1524 1524 1524 1524 1524 1525 1526 1527 1527 1526 1526 1526 1527 1526 1526 1525 1526 1525 1524 1524 1523
1554 1552 1550 1547 1517 1519 1521 1517 1515 1515 1513 1515 1515 1515 1515 1514 1516 1517 1517 1518 1519 1519 1519 1518 1518 1518 1519 1519 1519 1520 1521 1522 1523 1522 1522 1521 1521 1524 1524 1523 1523 1522 1522 1521
1545 1547 1538 1532 1516 1515 1509 1508 1506 1506 1507 1506 1506 1506 1508 1509 1509 1510 1511 1512 1513 1514 1514 1514 1514 1514 1514 1514 1514 1514 1514 1515 1515 1517 1518 1519 1519 1518 1519 1519 1519 1519 1519 1519
1532 1525 1526 1509 1504 1506 1502 1502 1502 1501 1499 1499 1500 1501 1502 1503 1504 1505 1505 1506 1508 1509 1509 1508 1508 1509 1509 1509 1509 1508 1509 1509 1510 1510 1511 1512 1512 1513 1514 1515 1515 1515 1516 1515
Wind_Speed
20 14 14 11 11 7 6 2 3 3 3 3 5 9 10 13 14 17 17 15 16 16 14 14 14 13 13 15 18 22 27 30 31 30 27 26 25 23 19 17 18 15 12 11
10 13 3 6 6 5 4 3 2 4 2 3 3 12 9 15 19 20 19 19 18 17 16 17 16 17 16 14 16 20 23 25 27 28 27 27 25 22 20 19 16 18 13 11
11 4 6 2 3 2 2 5 3 4 3 1 9 5 5 10 19 19 21 22 21 21 19 18 19 19 16 13 15 18 19 21 23 25 26 24 22 20 19 21 19 17 17 13
8 2 3 3 4 3 4 5 4 2 2 3 6 5 4 3 10 16 22 23 25 23 23 22 22 19 16 13 14 16 17 19 20 22 23 25 23 23 22 22 23 20 17 17
2 1 3 5 2 3 3 3 1 2 1 3 2 3 4 3 6 9 12 17 20 20 24 23 20 17 15 13 14 14 16 19 19 19 19 22 23 21 20 20 22 19 15 16
3 1 1 1 1 2 4 1 2 2 0 1 2 3 5 3 4 5 8 12 17 17 20 22 17 14 14 14 13 13 16 17 17 17 17 22 25 23 21 21 20 21 19 15
1 1 2 1 2 2 5 2 2 2 2 3 0 4 9 9 10 12 16 19 16 16 18 18 14 13 14 13 12 13 15 15 15 16 17 22 23 21 19 19 20 21 20 17
3 0 0 0 2 2 5 5 3 5 4 6 1 6 4 5 8 14 17 17 17 15 15 14 14 13 12 12 11 13 12 14 13 15 17 23 21 18 17 17 20 19 18 18
2 1 1 1 2 1 1 3 1 1 0 4 3 6 12 6 7 7 10 9 12 11 13 10 11 12 12 10 12 12 11 13 12 14 19 21 18 17 17 18 20 18 12 14
3 2 1 3 3 8 1 6 1 2 5 5 4 5 6 5 4 7 9 9 8 11 12 10 10 10 9 9 12 11 12 13 15 16 20 18 16 16 16 18 18 14 11 12
3 1 2 2 5 5 3 3 3 2 1 3 5 7 7 8 5 8 13 10 8 11 11 9 9 9 8 10 10 12 15 15 15 19 18 15 14 14 15 16 16 12 11 11
1 2 3 1 1 2 2 3 4 2 2 2 2 8 3 8 7 9 14 11 10 10 10 9 9 10 10 9 11 13 14 13 17 18 14 11 11 12 13 14 12 11 11 12
6 1 4 3 2 0 4 5 4 5 2 6 2 7 3 4 7 11 13 10 10 10 10 10 8 8 10 9 11 10 11 15 16 11 11 11 11 12 13 13 12 10 11 14
5 2 4 4 2 2 4 6 10 6 4 4 10 15 18 15 7 17 9 6 6 7 9 9 8 7 9 9 9 9 10 15 8 10 11 12 13 15 10 10 11 11 13 14
2 3 4 10 13 10 11 13 13 12 5 7 2 7 20 18 12 18 7 6 7 7 8 8 8 9 9 9 7 8 9 11 8 9 12 13 13 13 11 10 9 11 12 14
1 2 1 5 3 3 12 14 15 17 9 13 18 23 22 16 6 9 10 9 9 8 7 9 9 10 9 7 6 6 7 9 7 8 10 12 12 11 10 12 8 8 9 13
4 2 1 4 3 9 7 6 14 7 9 6 7 10 4 7 9 15 10 9 10 8 8 7 9 9 7 6 5 5 5 7 6 7 8 10 12 10 7 9 10 12 14 14
6 3 1 4 8 3 1 3 5 7 7 17 12 10 17 14 15 15 13 12 11 9 8 7 6 6 6 6 6 6 5 6 5 5 8 7 9 9 5 8 10 13 14 14
1 3 1 2 2 9 3 4 7 6 6 12 14 18 13 7 8 10 4 6 7 8 8 7 5 5 6 7 7 9 7 6 5 7 8 5 6 7 2 4 9 12 14 13
4 2 2 2 2 5 0 4 7 4 5 12 17 14 8 3 3 3 4 4 4 5 5 5 5 5 6 8 10 11 9 7 6 7 8 5 5 6 4 4 6 10 13 12
4 3 7 4 5 10 10 10 8 2 3 16 18 13 10 7 11 7 6 6 6 5 5 6 6 6 6 9 11 13 12 9 7 8 7 5 5 5 5 6 6 8 10 9
8 8 5 5 4 9 14 9 7 5 9 13 11 11 16 15 13 15 12 10 9 8 8 7 8 7 7 9 11 14 14 9 10 9 8 6 6 7 7 6 6 8 8 7
4 6 5 11 8 4 34 11 17 11 11 13 13 12 14 17 17 15 16 14 13 11 10 10 10 9 9 9 9 12 10 12 10 11 10 8 9 8 8 7 7 7 7 6
6 9 4 2 10 28 27 36 32 27 29 26 25 22 19 21 17 15 17 18 16 15 13 12 13 12 12 11 11 10 11 12 13 13 13 12 13 12 11 10 9 9 7 6
4 11 6 8 27 25 37 32 30 28 26 26 23 23 24 21 19 17 17 19 18 16 15 14 15 15 13 13 13 12 12 14 15 16 15 14 15 15 14 13 12 11 10 8
16 10 8 10 22 18 21 17 15 14 14 12 12 13 14 15 14 14 16 17 18 18 17 17 16 17 16 16 15 14 15 15 15 17 17 17 17 17 17 16 15 14 13 10
Wind_Direction
27 72 58 42 55 84 94 110 229 258 322 265 242 268 227 217 231 244 247 252 255 254 260 267 280 294 309 326 339 347 350 351 351 354 356 353 350 352 348 347 344 309 313 304
64 78 129 91 70 98 161 182 276 256 351 244 292 269 239 229 239 245 257 261 262 260 259 262 267 277 285 306 332 342 345 349 350 352 354 352 348 348 351 343 347 338 300 317
84 108 157 147 63 282 59 19 282 279 336 69 313 276 250 243 247 258 260 263 264 261 263 263 266 272 278 301 322 333 339 344 344 349 351 352 350 348 349 349 342 345 331 307
75 97 98 89 58 330 342 338 264 236 303 332 346 297 281 311 278 254 264 265 265 266 267 265 262 268 275 297 316 322 331 336 335 346 349 351 353 348 347 346 343 341 339 329
81 42 36 48 14 327 335 6 67 103 90 300 47 272 272 308 285 280 269 279 282 275 269 270 266 259 265 288 303 311 327 333 334 344 344 348 349 346 342 345 344 343 345 341
94 50 14 25 195 326 316 180 92 96 335 296 23 340 276 254 257 281 284 303 301 289 276 276 262 260 269 284 300 311 327 334 338 343 341 344 347 346 344 345 348 347 349 350
16 16 334 340 298 303 358 357 324 307 333 346 94 276 259 260 259 262 285 298 300 286 292 278 269 268 270 287 298 319 323 335 337 343 339 343 345 345 345 346 347 347 346 351
24 42 164 328 40 355 23 8 47 295 320 314 318 240 256 241 280 276 276 288 296 296 306 294 287 285 291 297 305 313 314 329 330 335 340 341 342 345 344 343 347 345 347 351
358 222 128 32 119 300 45 47 56 172 163 271 259 269 276 258 269 277 288 295 305 317 319 318 312 298 302 296 312 313 325 340 330 333 338 336 341 343 341 343 345 344 351 0
167 283 159 136 106 50 305 133 128 51 347 304 289 277 261 296 299 323 315 310 313 323 327 324 328 318 309 304 317 326 332 346 333 333 332 334 339 342 343 347 345 355 10 6
139 202 128 149 202 181 155 153 79 131 169 311 313 289 215 245 284 307 314 304 296 320 318 312 328 334 327 322 328 337 336 331 330 331 332 335 339 344 352 1 360 12 8 6
135 158 261 244 77 200 202 180 174 187 175 221 281 273 236 243 271 289 307 299 287 310 307 311 327 345 339 338 340 330 331 329 332 336 345 354 354 352 358 8 12 16 8 12
169 177 300 194 168 211 229 191 160 114 110 213 229 277 163 231 274 309 307 302 296 298 305 319 324 340 339 341 330 329 330 331 337 358 7 9 4 4 10 27 18 20 16 11
154 180 228 242 268 123 207 194 197 179 194 184 233 281 295 308 301 319 317 302 300 302 311 321 324 305 317 327 324 334 329 341 1 8 7 7 7 8 20 21 33 33 15 10
185 256 219 264 269 260 253 245 205 205 179 224 311 250 286 296 297 302 284 288 289 302 305 309 314 291 292 310 310 326 331 353 9 7 3 4 10 17 13 30 29 38 19 20
165 250 276 277 176 208 265 244 222 227 221 256 266 282 281 284 284 275 282 272 273 290 295 300 304 295 276 298 292 305 326 352 1 360 359 357 1 360 8 24 35 22 23 4
174 200 329 269 299 300 269 232 192 187 197 178 211 239 306 292 287 295 293 272 274 283 279 296 307 304 281 278 277 281 312 348 347 351 347 351 358 354 4 15 15 14 11 8
154 172 203 289 323 295 11 156 176 213 232 211 257 268 267 275 296 294 291 275 274 282 277 282 287 285 270 253 264 261 286 334 329 326 345 337 354 1 351 0 1 2 2 2
166 152 196 284 269 295 255 187 186 188 279 217 227 251 268 290 309 305 312 277 268 259 259 266 278 258 249 249 257 248 263 304 306 311 331 323 346 1 8 347 353 356 356 0
106 94 191 156 257 261 289 159 149 143 280 202 205 237 238 182 282 269 282 295 267 247 250 258 271 261 252 254 261 249 258 279 293 291 313 304 328 340 350 345 353 355 354 1
169 194 218 201 251 277 245 158 147 181 271 186 204 229 204 202 231 265 274 286 286 262 248 249 259 262 254 252 257 248 257 268 269 265 286 271 283 306 313 322 337 351 358 1
180 167 195 179 212 275 154 132 198 219 179 202 218 232 233 257 258 251 262 270 275 269 257 256 256 252 242 248 253 252 255 262 259 252 269 257 248 277 284 297 312 331 347 353
224 209 186 199 216 245 186 218 231 248 236 232 241 271 269 261 260 261 255 259 265 265 263 259 260 256 253 250 248 253 264 261 254 251 262 262 242 259 266 276 293 306 322 332
232 188 238 178 239 244 237 248 255 259 264 271 272 272 267 266 273 271 256 251 254 254 256 258 256 258 257 257 252 252 245 252 250 254 257 251 233 247 257 261 269 286 296 305
211 161 220 256 274 267 265 260 273 272 268 266 268 261 258 262 270 273 259 249 251 251 251 257 260 264 263 259 256 251 244 244 246 253 255 252 238 234 244 251 258 268 277 280
200 207 216 249 263 254 275 286 269 262 258 253 251 242 245 257 272 276 263 251 250 251 252 256 262 261 263 259 260 253 247 245 244 247 248 249 235 227 232 245 254 260 263 267